Location: Oshawa
(43.9000°N, 78.8670°W)
Time: 20:35:25
(UTC-04:00)

Cosmos 839 Rocket - Visible Passes

Search period start: 24 April 2018 00:00
Search period end: 04 May 2018 00:00
Orbit: 957 x 2096 km, 65.9° (Epoch: 24 April)

Date Brightness Start Highest point End Pass type
(mag) Time Alt. Az. Time Alt. Az. Time Alt. Az.
24 Apr 7.3 00:14:04 10° WNW 00:21:56 24° N 00:30:55 10° NE visible
24 Apr 7.2 02:18:03 10° NW 02:27:16 28° NNE 02:37:13 10° ENE visible
24 Apr 6.3 04:19:18 10° NNW 04:30:58 57° NE 04:42:52 10° SE visible
24 Apr 5.7 21:26:59 10° SW 21:35:26 60° NW 21:46:15 10° NNE visible
24 Apr 7.1 23:30:46 10° WNW 23:38:46 27° NNW 23:48:04 10° NE visible
25 Apr 7.3 01:35:26 10° NW 01:44:04 25° NNE 01:53:28 10° ENE visible
25 Apr 6.6 03:37:11 10° NNW 03:48:23 46° NE 03:59:56 10° ESE visible
25 Apr 5.6 05:37:58 10° NW 05:49:58 73° WSW 06:01:47 10° SSE visible
25 Apr 5.3 20:44:47 10° SW 20:53:11 79° NW 21:04:04 10° NNE visible
25 Apr 6.9 22:47:33 10° W 22:55:44 31° NNW 23:05:29 10° NNE visible
26 Apr 7.4 00:52:35 10° NW 01:00:46 23° N 01:09:49 10° NE visible
26 Apr 6.8 02:55:01 10° NNW 03:05:36 38° NE 03:16:43 10° E visible
26 Apr 5.7 04:55:48 10° NNW 05:07:56 89° ENE 05:19:57 10° SSE visible
26 Apr 6.6 22:04:30 10° W 22:12:51 38° NW 22:23:05 10° NNE visible
27 Apr 7.4 00:09:30 10° NW 00:17:28 23° N 00:26:23 10° NE visible
27 Apr 7.1 02:12:44 10° NNW 02:22:40 32° NNE 02:33:12 10° E visible
27 Apr 5.9 04:13:42 10° NNW 04:25:42 71° NE 04:37:44 10° SE visible
27 Apr 6.2 21:21:42 10° WSW 21:30:11 47° NW 21:40:49 10° NNE visible
27 Apr 7.3 23:26:15 10° WNW 23:34:11 25° N 23:43:15 10° NE visible
28 Apr 7.2 01:30:18 10° NW 01:39:34 28° NNE 01:49:31 10° ENE visible
28 Apr 6.2 03:31:36 10° NNW 03:43:18 57° NE 03:55:09 10° SE visible
28 Apr 5.7 05:32:32 10° NW 05:44:11 56° WSW 05:55:32 10° S visible
28 Apr 5.8 20:39:11 10° SW 20:47:43 61° NW 20:58:37 10° NNE visible
28 Apr 7.2 22:42:57 10° WNW 22:51:01 27° NNW 23:00:25 10° NE visible
29 Apr 7.3 00:47:41 10° NW 00:56:21 25° NNE 01:05:46 10° ENE visible
29 Apr 6.5 02:49:29 10° NNW 03:00:42 46° NE 03:12:15 10° ESE visible
29 Apr 5.6 04:50:17 10° NW 05:02:19 73° WSW 05:14:06 10° SSE visible
29 Apr 7.0 21:59:44 10° W 22:08:00 32° NNW 22:17:51 10° NNE visible
30 Apr 7.4 00:04:48 10° NW 00:13:03 24° N 00:22:07 10° NE visible
30 Apr 6.8 02:07:18 10° NNW 02:17:55 38° NE 02:28:59 10° E visible
30 Apr 5.6 04:08:07 10° NNW 04:20:17 88° ENE 04:32:16 10° SSE visible
30 Apr 6.7 21:16:41 10° W 21:25:08 38° NW 21:35:28 10° NNE visible
30 Apr 7.4 23:21:42 10° NW 23:29:44 23° N 23:38:42 10° NE visible
01 May 7.0 01:25:01 10° NNW 01:34:58 32° NNE 01:45:29 10° E visible
01 May 5.9 03:26:01 10° NNW 03:38:03 71° NE 03:50:02 10° SE visible
01 May 5.9 05:27:16 10° NW 05:38:14 42° WSW 05:48:52 10° S visible
01 May 6.3 20:33:53 10° WSW 20:42:27 48° NW 20:53:11 10° NNE visible
01 May 7.3 22:38:26 10° WNW 22:46:28 25° NNW 22:55:35 10° NE visible
02 May 7.2 00:42:33 10° NW 00:51:51 28° NNE 01:01:48 10° ENE visible
02 May 6.2 02:43:54 10° NNW 02:55:37 57° NE 03:07:27 10° ESE visible
02 May 5.7 04:44:51 10° NW 04:56:32 57° WSW 05:07:53 10° S visible
02 May 7.2 21:55:08 10° WNW 22:03:18 28° NNW 22:12:47 10° NE visible
02 May 7.3 23:59:54 10° NW 00:08:37 25° NNE 00:18:04 10° ENE visible
03 May 6.5 02:01:47 10° NNW 02:13:01 46° NE 02:24:31 10° ESE visible
03 May 5.5 04:02:36 10° NW 04:14:41 74° WSW 04:26:27 10° SSE visible
03 May 7.0 21:11:54 10° W 21:20:16 32° NNW 21:30:13 10° NNE visible
03 May 7.3 23:17:01 10° NW 23:25:20 24° N 23:34:26 10° NE visible
